TimeEST,TemperatureF,Dew PointF,Humidity,Sea Level PressureIn,VisibilityMPH,Wind Direction,Wind SpeedMPH,Gust SpeedMPH,PrecipitationIn,Events,Conditions,WindDirDegrees,DateUTC
12:53 AM,50.0,34.0,54,30.11,10.0,NW,12.7,-,N/A,,Clear,310,2013-02-17 05:53:00
1:53 AM,46.9,35.1,63,30.13,10.0,NNW,12.7,-,N/A,,Clear,330,2013-02-17 06:53:00
2:53 AM,46.0,25.0,44,30.15,10.0,NNW,12.7,-,N/A,,Clear,330,2013-02-17 07:53:00
3:53 AM,44.1,21.0,40,30.16,10.0,NNW,16.1,24.2,N/A,,Clear,340,2013-02-17 08:53:00
4:53 AM,42.1,19.0,40,30.18,10.0,NNW,15.0,-,N/A,,Clear,330,2013-02-17 09:53:00
5:53 AM,39.9,16.0,38,30.21,10.0,NNW,10.4,-,N/A,,Clear,330,2013-02-17 10:53:00
6:53 AM,39.0,17.1,41,30.23,10.0,NW,8.1,-,N/A,,Clear,320,2013-02-17 11:53:00
7:53 AM,42.1,18.0,38,30.25,10.0,NW,13.8,-,N/A,,Clear,320,2013-02-17 12:53:00
8:53 AM,46.0,19.0,34,30.28,10.0,NNW,18.4,24.2,N/A,,Clear,330,2013-02-17 13:53:00
9:53 AM,48.0,15.1,27,30.30,10.0,NNW,15.0,27.6,N/A,,Clear,340,2013-02-17 14:53:00
10:53 AM,50.0,14.0,24,30.31,10.0,NNW,15.0,26.5,N/A,,Clear,330,2013-02-17 15:53:00
11:53 AM,52.0,18.0,26,30.30,10.0,NNW,13.8,23.0,N/A,,Clear,340,2013-02-17 16:53:00
12:53 PM,54.0,18.0,24,30.30,10.0,NNW,9.2,21.9,N/A,,Clear,340,2013-02-17 17:53:00
1:53 PM,54.0,18.0,24,30.28,10.0,North,13.8,21.9,N/A,,Clear,350,2013-02-17 18:53:00
2:53 PM,54.0,18.0,24,30.27,10.0,North,13.8,21.9,N/A,,Clear,10,2013-02-17 19:53:00
3:53 PM,54.0,19.0,25,30.27,10.0,NNE,11.5,20.7,N/A,,Clear,20,2013-02-17 20:53:00
4:53 PM,53.1,21.0,29,30.28,10.0,NNE,12.7,-,N/A,,Clear,20,2013-02-17 21:53:00
5:53 PM,50.0,23.0,35,30.29,10.0,North,9.2,-,N/A,,Clear,350,2013-02-17 22:53:00
6:53 PM,45.0,25.0,46,30.30,10.0,NNW,4.6,-,N/A,,Clear,330,2013-02-17 23:53:00
7:53 PM,39.9,28.9,65,30.31,10.0,NW,3.5,-,N/A,,Clear,310,2013-02-18 00:53:00
8:53 PM,39.0,30.0,70,30.32,10.0,WNW,3.5,-,N/A,,Clear,290,2013-02-18 01:53:00
9:53 PM,37.9,28.9,70,30.33,10.0,Calm,Calm,-,N/A,,Clear,0,2013-02-18 02:53:00
10:53 PM,39.0,28.9,67,30.34,10.0,NW,6.9,-,N/A,,Clear,310,2013-02-18 03:53:00